EHI
0 0 0 0 0 0 0 0 0 0 0 0 0 0 0 0 1 1 1 0 0 0 0 0 0 0 0 0 0 0 0 0 0 0 0 0 0 0 0 0 0 0 0
0 0 0 0 0 0 0 0 0 0 0 0 0 0 0 0 1 2 1 0 0 0 0 0 0 0 0 0 0 0 0 0 0 0 0 0 0 0 0 0 0 0 0
0 0 0 0 0 0 0 0 0 0 0 0 0 0 0 0 0 1 0 0 0 0 0 0 0 0 0 0 0 0 0 0 0 0 0 0 0 0 0 0 0 0 0
0 0 0 0 0 0 0 0 0 0 0 0 0 0 0 0 0 0 0 0 0 0 0 0 0 0 0 0 0 0 0 0 0 0 0 0 0 0 0 0 0 0 0
0 0 0 0 0 0 0 0 0 0 0 0 0 0 0 0 0 0 0 0 0 0 0 0 0 0 0 0 0 0 0 0 0 0 0 0 0 0 0 0 0 0 0
0 0 0 0 0 0 0 0 0 0 0 0 0 0 0 0 0 0 0 0 0 0 0 0 0 0 0 0 0 0 0 0 0 0 0 0 0 0 0 0 0 0 0
0 0 0 0 0 0 0 0 0 0 0 0 0 0 0 0 0 0 0 0 0 0 0 0 0 0 0 0 0 0 0 0 0 0 0 0 0 0 0 0 0 0 0
0 0 0 0 0 0 0 0 0 0 0 0 0 0 0 0 0 0 0 0 0 0 0 0 0 0 0 0 0 0 0 0 0 0 0 0 0 0 0 0 0 0 0
0 0 0 0 0 0 0 0 0 0 0 0 0 0 0 0 0 0 0 0 0 0 0 0 0 0 0 0 0 0 0 0 0 0 0 0 0 0 0 0 0 0 0
0 0 0 0 0 0 0 0 0 0 0 0 0 0 0 0 0 0 0 0 0 0 0 0 0 0 0 0 0 0 0 0 0 0 0 0 0 0 0 0 0 0 0
0 0 0 0 0 0 0 0 0 0 0 0 0 0 0 0 0 0 0 0 0 0 0 0 0 0 0 0 0 0 0 0 0 0 0 0 0 0 0 0 0 0 0
0 0 0 0 0 0 0 0 0 0 0 0 0 0 0 0 0 0 0 0 0 0 0 0 0 0 0 0 0 0 0 0 0 0 0 0 0 0 0 0 0 0 0
0 0 0 0 0 0 0 0 0 0 0 0 0 0 0 0 0 0 0 0 0 0 0 0 0 0 0 0 0 0 0 0 0 0 0 0 0 0 0 0 0 0 0
0 0 0 0 0 0 0 0 0 0 0 0 0 0 0 0 0 0 0 0 0 0 0 0 0 0 0 0 0 0 0 0 0 0 0 0 0 0 0 0 0 0 0
0 0 0 0 0 0 0 0 0 0 0 0 0 0 0 0 0 0 0 0 0 0 0 0 0 0 0 0 0 0 0 0 0 0 0 0 0 0 0 0 0 0 0
0 0 0 0 0 0 0 0 0 0 0 0 0 0 0 0 0 0 0 0 0 0 0 0 0 0 0 0 0 0 0 0 0 0 0 0 0 0 0 0 0 0 0
0 0 0 0 0 0 0 0 0 0 0 0 0 0 0 0 0 0 0 0 0 0 0 0 0 0 0 0 0 0 0 0 0 0 0 0 0 0 0 0 0 0 0
0 0 0 0 0 0 0 0 0 0 0 0 0 0 0 0 0 0 0 0 0 0 0 0 0 0 0 0 0 0 0 0 0 0 0 0 0 0 0 0 0 0 0
0 0 0 0 0 0 0 0 0 0 0 0 0 0 0 0 0 0 0 0 0 0 0 0 0 0 0 0 0 0 0 0 0 0 0 0 0 0 0 0 0 0 0
0 0 0 0 0 0 0 0 0 0 0 0 0 0 0 0 0 0 0 0 0 0 0 0 0 0 0 0 0 0 0 0 0 0 0 0 0 0 0 0 0 0 0
0 0 0 0 0 0 0 0 0 0 0 0 0 0 0 0 0 0 0 0 0 0 0 0 0 0 0 0 0 0 0 0 0 0 0 0 0 0 0 0 0 0 0
0 0 0 0 0 0 0 0 0 0 0 0 0 0 0 0 0 0 0 0 0 0 0 0 0 0 0 0 0 0 0 0 0 0 0 0 0 0 0 0 0 0 0
0 0 0 0 0 0 0 0 0 0 0 0 0 0 0 0 0 0 0 0 0 0 0 0 0 0 0 0 0 0 0 0 0 0 0 0 0 0 0 0 0 0 0
0 0 0 0 0 0 0 0 0 0 0 0 0 0 0 0 0 0 0 0 0 0 0 0 0 0 0 0 0 0 0 0 0 0 0 0 0 0 0 0 0 0 0
0 0 0 0 0 0 0 0 0 0 0 0 0 0 0 0 0 0 0 0 0 0 0 0 0 0 0 0 0 0 0 0 0 0 0 0 0 0 0 0 0 0 0
0 0 0 0 0 0 0 0 0 0 0 0 0 0 0 0 0 0 0 0 0 0 0 0 0 0 0 0 0 0 0 0 0 0 0 0 0 0 0 0 0 0 0
Wind_Speed
5 5 4 4 5 4 5 5 6 6 7 7 7 9 9 10 9 7 6 13 15 14 14 13 12 13 13 12 13 13 12 13 12 12 13 14 14 13 16 19 19 18 16
6 5 5 5 5 5 5 5 6 5 5 5 7 8 9 9 9 8 7 9 14 15 14 13 12 11 12 12 12 12 12 12 12 11 12 13 14 14 14 19 20 19 18
7 6 5 5 5 4 5 4 5 4 5 5 8 8 7 8 8 9 8 7 8 11 13 13 12 10 11 12 13 12 11 12 12 10 10 11 12 13 13 18 21 20 18
8 6 5 5 6 4 4 4 4 4 5 5 6 6 6 6 9 9 9 8 7 6 8 12 12 11 12 13 14 13 12 11 11 11 11 11 11 13 13 16 21 20 19
7 6 5 6 5 4 4 5 4 4 5 6 6 6 6 7 8 8 9 9 8 7 6 8 11 12 13 14 14 13 12 12 12 12 12 12 12 13 13 16 20 21 21
6 5 4 5 4 4 4 4 5 5 5 5 6 6 6 7 7 7 8 7 7 8 7 7 6 7 12 14 14 14 13 14 14 14 14 13 13 12 12 15 19 22 23
4 4 3 3 3 4 5 5 4 5 5 3 3 5 6 7 8 8 7 6 7 7 6 7 6 6 6 12 14 14 15 16 15 15 14 13 13 12 12 14 19 23 24
3 2 1 1 2 3 5 5 5 4 4 3 3 3 4 4 5 5 5 6 6 4 5 6 6 6 6 6 7 12 13 14 15 16 16 14 13 13 13 13 18 23 24
3 2 1 2 3 3 5 6 6 6 5 4 5 5 4 5 4 3 2 2 2 2 3 4 6 7 7 6 6 9 12 12 14 16 14 13 12 12 13 13 16 22 25
1 2 1 2 3 2 4 5 5 4 5 5 3 5 6 3 3 3 3 2 2 2 3 4 5 6 7 6 7 10 11 12 12 11 10 10 10 9 11 13 15 21 26
0 1 1 1 1 1 1 3 3 3 3 4 4 3 5 4 3 3 4 4 3 3 3 4 5 6 6 7 6 8 10 10 8 8 8 10 11 10 12 15 16 19 26
0 2 2 2 1 1 1 2 2 2 2 2 2 2 2 2 3 4 5 4 4 4 4 4 5 5 5 6 8 9 9 7 6 6 8 10 12 13 15 16 17 19 25
1 2 2 2 1 1 1 1 2 2 2 2 2 1 1 2 2 2 3 3 3 3 3 3 4 4 4 4 4 7 7 6 5 5 7 9 10 12 14 15 16 18 24
1 1 2 2 3 3 3 3 2 2 2 2 2 2 1 1 1 1 1 1 2 3 2 4 3 3 3 2 3 5 3 4 4 5 7 8 9 10 11 13 14 16 24
1 2 3 4 4 3 4 4 3 3 3 2 2 2 2 2 2 2 1 1 1 3 3 3 3 3 3 2 2 2 2 3 4 4 5 6 6 5 7 11 13 17 23
2 3 4 4 3 3 4 3 3 4 4 3 2 3 3 2 2 2 2 1 1 2 3 3 3 4 3 2 3 3 2 4 4 4 3 2 2 3 4 9 15 21 24
3 4 4 3 3 3 4 3 4 4 4 4 4 4 4 4 3 3 3 2 1 1 4 4 3 3 4 3 2 2 3 3 2 3 2 0 2 4 6 10 14 20 22
5 5 4 4 4 4 4 4 5 5 4 4 4 5 5 3 4 3 3 3 2 2 3 5 3 3 3 3 3 3 3 3 2 3 3 2 3 5 7 10 13 16 18
6 6 5 5 5 5 4 5 4 5 6 6 6 5 5 4 3 3 3 4 3 3 2 3 3 2 2 2 2 3 3 2 2 2 3 3 5 7 8 11 14 17 19
6 6 5 5 4 4 5 5 5 6 6 6 6 5 5 4 3 4 4 5 5 5 3 2 2 2 3 3 2 2 2 1 1 0 2 3 5 7 9 10 11 14 16
6 5 5 5 5 5 5 5 5 6 6 6 6 6 6 6 5 3 2 3 4 4 4 3 3 3 4 4 3 2 2 1 0 0 1 2 3 4 6 8 9 10 12
6 6 6 5 6 5 8 10 8 7 7 7 7 7 6 8 8 8 8 7 5 4 4 4 4 4 5 5 5 3 1 0 1 1 0 1 2 3 4 6 9 12 12
5 5 5 5 5 5 10 12 12 7 7 6 7 7 7 8 9 8 8 9 9 9 7 3 3 4 4 5 6 5 4 3 2 2 1 0 0 1 1 2 6 10 12
4 4 5 5 5 6 10 12 11 7 6 6 6 6 6 8 9 7 7 9 9 10 9 5 3 4 4 5 4 3 3 3 3 3 3 1 2 1 1 2 3 2 6
4 5 5 5 6 6 6 8 7 4 5 6 6 6 7 7 11 12 10 10 10 9 9 11 9 8 9 10 8 4 4 4 3 3 3 2 2 2 2 1 1 1 2
5 6 7 6 7 6 5 6 6 4 5 4 4 5 9 9 10 11 8 7 8 7 7 9 9 9 8 9 11 8 5 3 2 2 2 2 2 2 1 1 1 1 2
Wind_Direction
232 235 239 245 252 248 246 246 243 246 256 262 257 251 253 253 254 251 256 265 271 269 267 267 263 257 252 244 243 245 247 250 249 242 237 238 241 238 222 210 208 205 203
226 229 238 244 249 247 246 243 242 245 254 259 265 259 255 257 257 254 252 262 266 270 268 262 261 261 256 250 245 243 243 246 247 246 243 240 237 235 226 212 209 206 202
221 223 231 242 249 250 249 249 251 251 257 257 262 264 264 260 256 255 254 252 258 262 266 264 260 255 247 245 246 244 242 244 246 247 246 244 239 234 227 214 208 205 201
215 216 225 238 238 231 230 242 249 254 256 256 260 265 267 266 260 258 258 250 244 247 258 263 260 253 246 245 248 245 240 241 243 242 242 243 240 236 229 218 208 203 199
205 201 218 234 235 233 234 239 243 235 254 260 264 270 266 264 266 265 260 253 245 241 243 254 256 255 253 249 245 241 238 242 244 244 246 246 244 240 230 221 209 201 196
205 199 219 240 242 247 253 249 254 247 247 259 271 272 270 266 265 261 258 253 248 244 241 244 250 255 253 246 239 234 234 239 243 247 247 245 247 244 233 221 210 201 196
186 185 212 247 253 255 265 270 271 268 256 235 250 271 270 265 258 257 249 243 243 241 236 237 242 244 251 247 241 233 234 239 242 247 246 242 243 239 231 221 211 202 197
137 133 152 279 280 276 277 270 257 261 255 213 225 266 289 296 268 252 246 242 245 235 237 243 246 245 246 246 242 236 237 244 249 249 246 242 241 233 226 223 213 203 196
87 75 13 300 282 269 275 275 263 253 259 246 213 223 245 253 293 296 277 267 257 235 244 253 253 253 248 242 243 243 245 251 257 258 254 249 244 233 224 224 218 206 196
89 67 0 302 285 278 280 285 284 273 270 276 254 224 231 242 242 297 316 317 318 269 260 259 258 255 248 242 239 240 244 247 248 255 263 263 253 235 227 227 226 210 195
78 53 3 349 354 353 340 347 340 313 275 277 271 246 235 230 227 238 281 313 321 286 268 268 268 265 253 238 235 238 236 229 228 242 255 263 262 253 241 233 230 215 196
17 13 12 22 23 49 32 15 9 355 338 303 279 242 224 216 213 221 240 255 273 283 282 273 268 265 259 240 237 234 221 210 220 241 257 266 267 260 249 236 227 213 195
82 14 17 12 10 23 15 12 21 6 358 356 331 293 251 228 211 212 227 249 263 281 292 289 272 275 280 255 238 210 195 204 231 258 277 280 276 263 246 230 219 207 188
126 44 32 24 20 19 16 16 16 0 1 8 12 11 3 358 309 228 219 237 292 298 303 300 307 302 294 261 218 184 197 221 252 284 296 294 288 267 235 212 206 195 178
113 66 50 39 29 24 23 17 5 355 349 353 11 16 6 357 1 349 296 228 249 296 305 304 306 307 287 258 219 210 226 251 275 304 304 302 310 289 213 192 184 168 163
101 71 57 53 47 38 28 15 352 342 342 339 349 17 13 348 343 350 359 351 268 255 278 275 264 276 279 261 220 220 238 256 279 305 297 307 4 51 131 152 154 153 158
77 71 64 59 45 28 13 2 342 338 351 352 6 32 29 13 5 357 355 356 324 271 269 277 264 269 267 257 226 219 232 236 260 269 255 219 99 109 129 144 152 157 162
69 71 68 56 35 23 13 2 344 348 3 12 24 37 30 30 28 7 1 4 338 289 265 281 280 277 269 255 231 220 235 235 235 240 220 165 126 129 135 143 151 154 156
74 65 62 53 38 27 20 14 15 34 50 45 34 32 21 15 16 3 4 359 339 316 270 272 291 301 303 304 255 221 230 240 245 224 188 152 133 131 131 135 141 144 148
85 71 61 51 38 29 27 33 52 66 60 43 28 18 4 354 346 348 355 355 349 349 341 332 326 324 317 313 295 255 227 208 249 195 134 132 142 145 145 146 149 154 163
90 81 68 51 38 36 34 53 63 68 51 33 21 12 9 20 11 356 345 348 357 2 1 4 2 357 356 349 333 315 259 187 132 13 154 146 148 157 168 170 169 176 184
85 77 66 59 51 45 59 70 77 69 54 40 22 6 13 24 14 17 22 32 30 16 5 13 15 10 355 347 335 330 327 187 151 12 179 171 166 185 185 188 191 193 197
92 81 68 70 69 61 82 83 82 80 63 42 26 16 21 16 14 7 11 30 37 37 28 358 7 6 349 335 338 354 3 7 22 2 10 93 60 200 171 180 191 204 209
94 81 62 63 72 71 99 100 94 83 71 52 36 24 30 24 17 14 24 31 31 30 23 23 359 338 326 319 319 322 329 357 23 18 4 38 37 23 64 126 127 180 219
99 81 68 68 75 62 96 116 103 85 71 53 36 28 27 25 12 29 38 32 27 20 21 39 44 33 20 17 8 8 13 29 20 358 3 17 12 6 7 19 112 142 219
109 94 78 66 72 63 70 114 105 91 76 55 32 24 29 29 23 33 42 39 30 0 2 25 27 19 19 23 31 25 360 3 12 0 8 17 7 9 356 336 272 219 223